Terminal Aerodrome Forecast
Issued by NWS

Home | Current Version | Previous Version | Text Only | Print | Product List | Glossary On
Versions: 1 2 3 4 5 6 7 8 9 10 11 12 13 14 15 16 17 18 19 20 21 22 23 24 25 26 27 28 29 30 31 32 33 34 35 36
000
FTUS41 KCTP 310248 AAA
TAFLNS
TAF AMD
KLNS 310248Z 3103/3124 11004KT 6SM BR SCT015 BKN035 OVC120
     FM310400 11003KT 5SM BR BKN020 OVC120
     FM310700 VRB02KT 1SM BR VCFG SCT120
      TEMPO 3108/3112 1/2SM FG VV002
     FM311300 VRB02KT 3SM BR SKC
     FM311500 25005KT P6SM SCT050=

USA.gov is the U.S. government's official web portal to all federal, state and local government web resources and services.